Theta_e
319 318 320 320 322 322 324 327 322 321 323 317 315 316 313 313 314 313 315 314 315 317 314 316 316 313 318 317 318 319 317 322 320 317 318 325 332 336 338 338 337 337 337 340 339 339 339 338 339 338 338 338 334 334 335 336 336 336 337 338 339 338 339 338 337 337 337 335 329 323 324 327 327 324 321 321 320 320 321 321 322 322 319 318 315 314 314 312 312 320 325 328 328 329 330 330 331
318 319 321 321 321 322 324 325 324 323 323 316 312 316 313 313 315 314 317 316 318 320 317 320 321 319 321 320 320 320 318 322 319 319 325 328 333 336 338 339 337 338 338 339 340 339 340 339 339 338 337 337 334 334 335 335 336 335 336 337 338 339 339 338 338 337 336 334 330 325 325 327 326 323 322 321 320 322 324 324 324 325 322 319 319 320 319 316 320 326 328 329 329 329 329 330 331
318 320 321 322 321 321 329 325 320 324 325 316 313 318 313 313 315 314 316 315 316 317 314 315 320 318 319 321 320 319 318 321 323 323 327 329 332 335 338 337 336 340 340 340 341 340 340 339 339 338 337 337 335 334 336 336 335 335 337 336 337 339 338 338 338 337 336 334 330 326 326 328 326 324 323 322 321 322 323 323 323 325 324 319 316 320 323 321 324 327 328 328 328 328 329 330 330
318 320 320 324 325 327 342 333 324 328 323 317 316 318 317 317 316 315 316 315 314 312 311 313 319 315 315 322 318 318 321 321 323 325 328 328 332 335 337 336 336 339 340 341 341 340 340 340 339 338 337 337 337 335 335 336 336 336 337 336 336 338 338 338 337 337 336 335 331 326 327 328 325 324 324 323 323 322 322 322 320 322 324 320 313 318 324 324 326 327 327 327 327 328 329 330 329
318 321 319 324 331 328 333 326 325 327 317 318 317 316 322 320 316 316 315 313 312 311 312 316 320 315 315 323 319 320 322 318 319 325 330 330 333 335 336 337 338 340 341 340 340 340 340 340 339 338 338 337 337 336 334 335 337 338 337 335 334 336 337 337 337 337 337 335 332 327 328 328 325 325 325 324 325 324 324 322 319 317 320 320 315 317 323 326 326 327 326 326 327 329 329 328 328
318 319 318 320 321 317 323 320 319 319 314 319 317 314 319 319 316 317 313 310 313 313 312 316 321 319 321 323 320 324 324 322 325 327 331 332 334 336 338 338 339 340 340 341 340 340 340 340 339 339 338 337 338 336 334 333 335 337 336 334 333 334 336 336 337 337 337 336 332 328 329 328 326 327 326 326 327 326 326 323 319 316 316 318 317 319 324 325 326 326 326 326 328 329 328 327 327
320 318 323 326 320 317 325 322 317 318 313 312 313 313 314 317 315 314 313 311 314 314 315 318 319 319 322 319 318 324 324 326 328 330 333 333 334 336 340 339 339 339 339 341 341 340 340 340 339 339 339 338 337 337 336 334 334 336 335 333 333 334 335 336 337 337 336 335 332 328 329 329 328 328 328 328 327 326 325 321 319 318 315 315 318 322 325 325 325 325 324 326 327 327 327 327 327
320 320 325 332 328 325 330 324 318 319 313 308 310 313 313 315 313 313 314 313 313 314 318 317 315 318 319 316 317 321 317 319 327 332 333 334 335 336 339 340 339 338 339 340 340 341 339 339 340 339 339 339 338 337 337 336 334 334 335 332 332 334 336 337 336 337 336 336 333 329 331 331 329 329 329 328 326 324 321 318 318 318 315 314 318 322 324 324 324 324 324 326 326 326 327 327 326
315 316 324 333 328 327 330 320 315 315 314 312 311 314 316 314 311 313 314 313 312 313 317 314 312 316 317 318 318 315 310 315 328 333 332 336 335 336 339 340 339 338 340 341 341 341 340 340 340 339 339 339 339 338 338 337 335 333 334 332 332 334 335 336 336 336 336 336 333 330 332 331 329 329 329 328 324 321 318 316 316 314 313 314 317 320 323 324 324 323 324 325 325 325 326 325 325
316 316 324 333 327 323 323 316 316 316 313 314 312 314 317 314 312 313 314 312 312 314 317 313 314 316 316 319 317 312 310 317 330 333 333 336 335 336 337 339 341 339 340 340 340 341 340 340 340 340 339 340 339 339 338 337 335 333 332 331 331 334 335 336 336 336 336 336 333 332 333 332 329 328 328 327 323 320 317 317 315 312 309 310 312 316 320 322 323 323 323 324 324 324 324 324 324
322 323 329 337 329 321 319 318 319 319 315 315 314 315 315 312 313 314 314 312 312 315 314 313 319 320 316 318 316 310 309 319 331 333 333 335 335 336 337 339 340 340 340 339 340 340 341 340 341 340 338 340 339 339 338 337 336 334 332 329 330 333 334 335 335 336 335 335 333 333 333 332 330 328 328 326 324 321 318 318 316 313 308 304 304 306 311 316 319 321 322 322 323 323 322 322 322
323 329 339 340 329 322 322 321 318 323 323 317 315 315 312 310 313 314 314 314 313 314 312 312 317 316 316 320 314 308 310 322 330 332 333 334 334 336 337 339 338 338 339 339 340 340 341 342 341 341 340 340 339 339 338 337 337 335 332 328 330 333 333 335 335 335 335 334 334 333 333 333 330 329 329 327 324 321 320 319 316 315 312 307 303 300 301 305 309 314 317 319 319 320 320 319 319
328 333 344 329 318 321 322 320 317 322 323 318 315 311 308 310 314 315 316 315 313 315 313 309 311 313 318 319 312 308 310 322 331 333 333 333 334 335 337 338 337 338 338 338 341 340 340 342 340 340 340 341 339 339 338 337 337 335 332 328 330 333 333 334 335 335 335 334 334 333 333 333 331 330 329 328 325 322 321 320 318 316 314 312 308 304 300 299 300 304 307 310 312 313 313 312 310
330 331 339 325 312 319 321 318 318 318 317 319 316 310 309 312 314 314 315 315 314 314 311 305 308 313 316 315 314 313 309 318 331 332 332 334 334 334 336 338 336 339 338 336 338 335 337 340 338 338 339 339 339 339 339 338 337 335 332 328 330 333 333 334 334 334 334 334 334 333 333 332 332 331 330 328 326 323 322 321 319 316 315 313 312 309 305 301 298 298 300 301 303 304 304 303 301
324 325 332 328 315 318 319 317 319 318 318 319 314 311 312 311 310 313 314 315 314 309 308 306 307 312 314 315 317 314 310 320 329 330 333 335 333 333 335 337 337 338 336 333 336 335 337 338 334 339 337 336 340 340 339 338 337 336 333 329 329 331 333 333 333 333 334 334 334 333 333 332 332 331 329 328 327 324 322 322 320 317 316 313 312 311 308 304 301 300 300 300 301 301 301 301 301
317 327 334 330 319 317 316 316 319 318 319 318 312 311 314 310 308 312 310 310 313 308 310 312 308 311 313 313 313 309 312 323 327 328 334 335 333 333 334 336 336 337 336 333 337 337 338 338 335 341 337 334 340 340 338 338 338 336 335 332 329 330 331 332 332 333 334 334 334 334 333 332 332 331 329 328 327 326 323 322 322 319 316 314 312 311 309 308 306 305 305 305 305 306 306 307 308
319 335 339 328 321 320 317 316 318 320 321 317 311 312 315 313 309 310 305 307 315 313 314 315 308 309 311 311 310 309 316 323 326 328 332 335 334 334 334 335 335 336 337 334 336 336 336 337 336 338 335 334 338 338 339 338 338 337 336 335 332 330 330 330 331 332 333 333 334 334 333 332 331 330 329 327 327 327 325 323 322 321 318 315 315 314 313 313 312 311 311 311 312 312 312 313 313
331 339 332 324 324 323 321 318 316 320 321 316 313 313 316 315 312 310 308 312 316 314 316 315 310 309 309 310 311 313 318 323 326 327 330 333 332 333 334 334 334 334 334 333 334 333 333 334 333 333 333 332 334 336 339 338 337 337 337 336 335 333 331 330 331 332 332 332 333 333 333 332 330 330 329 328 328 327 326 323 322 322 319 317 316 317 317 316 316 316 315 316 315 315 315 315 314
332 333 326 327 328 320 317 318 314 315 317 316 314 312 313 314 314 311 310 315 315 314 316 315 316 315 311 311 314 317 319 323 325 327 329 330 330 332 332 332 333 332 332 332 331 331 331 331 330 331 331 331 333 336 338 338 336 335 336 336 336 335 334 332 332 331 331 332 332 332 332 332 330 329 329 328 328 327 326 325 322 322 321 318 317 317 318 318 317 317 317 317 317 316 316 315 315
321 327 329 328 326 317 312 316 316 313 314 317 315 311 313 312 312 310 312 317 315 317 317 315 319 320 317 313 315 319 319 322 324 326 328 327 329 329 330 330 331 332 332 332 331 330 330 329 329 330 331 332 334 336 338 338 337 335 335 336 335 335 335 335 334 332 331 331 332 331 331 332 331 330 329 329 329 328 327 326 323 322 321 319 318 318 318 318 318 318 318 317 317 317 316 315 314
316 322 325 319 318 316 313 315 316 313 312 316 315 312 313 311 309 311 313 316 316 319 318 316 318 322 322 313 314 320 319 321 320 322 325 325 327 327 328 328 328 330 330 331 331 330 329 329 328 328 331 331 333 336 337 337 338 338 336 336 334 334 335 334 335 335 333 332 332 331 331 332 331 331 331 329 329 328 327 326 324 322 322 320 320 319 318 318 318 318 317 317 316 316 315 314 313
315 314 315 314 315 314 313 313 313 312 311 315 316 313 312 310 310 314 314 315 317 318 315 315 315 318 320 314 314 318 318 320 318 318 321 321 323 324 325 326 326 327 327 328 328 328 328 327 328 328 329 331 332 334 335 336 338 338 336 336 334 335 335 334 336 336 334 334 332 332 331 331 332 332 331 330 329 328 327 326 325 323 322 321 321 321 319 319 319 318 317 317 316 315 314 313 311
316 314 311 313 314 313 312 312 312 312 313 316 315 312 311 312 313 312 312 314 315 311 308 310 309 307 311 312 313 317 318 319 317 317 318 319 319 320 321 321 322 322 323 323 323 325 325 325 326 326 327 329 330 331 333 334 336 337 336 336 334 335 335 335 336 336 335 334 333 332 332 331 332 332 330 330 329 328 328 327 326 325 323 322 322 321 320 320 319 318 317 316 315 313 312 310 307
320 317 313 313 312 311 312 311 312 313 315 315 312 310 312 316 313 310 312 314 315 309 303 304 303 302 307 311 313 315 317 317 317 317 317 316 316 316 316 316 317 317 318 318 319 320 321 322 323 324 326 326 328 330 331 331 333 335 336 335 335 334 334 334 335 335 336 334 332 332 332 331 331 332 330 330 330 328 328 327 327 325 324 323 322 322 321 320 319 318 316 315 313 311 309 308 305
320 316 315 314 312 312 312 313 315 314 314 312 311 313 313 313 310 310 315 316 316 311 305 304 304 306 310 314 314 311 312 313 313 314 314 314 314 313 313 313 314 314 314 314 314 314 315 316 319 321 323 325 326 327 328 329 330 332 334 335 335 334 332 332 332 333 334 332 331 332 333 332 331 332 330 330 330 328 327 327 327 326 325 324 323 321 321 321 319 317 315 314 312 310 308 306 302
316 316 317 316 314 314 312 314 317 315 314 312 312 316 313 309 309 313 316 315 314 310 311 311 311 314 314 315 311 307 309 309 310 312 312 313 313 313 313 312 313 312 312 312 311 312 312 313 314 316 319 323 325 326 326 327 329 330 332 333 334 334 332 332 332 332 332 332 332 332 332 331 331 331 330 329 329 328 327 327 327 327 325 324 324 322 320 320 318 316 315 313 312 309 306 302 300
315 319 317 317 318 316 314 314 316 315 314 313 313 316 314 310 312 315 316 311 310 314 318 313 315 319 315 315 309 305 308 308 310 311 311 312 312 313 312 312 311 311 310 310 311 312 313 314 315 314 315 320 323 325 326 325 328 330 331 332 331 332 332 332 331 332 333 332 331 331 331 331 330 330 329 329 328 328 327 326 326 326 325 323 323 321 319 319 318 316 315 313 311 308 304 301 299
315 320 317 318 321 317 315 315 314 314 313 313 313 314 314 311 313 317 315 308 309 318 322 314 315 318 313 315 310 305 306 308 310 310 311 312 312 312 311 310 310 309 309 310 312 311 314 316 316 316 316 319 323 326 327 326 328 331 331 330 330 331 331 331 331 331 331 331 331 331 331 330 330 329 329 327 327 327 326 326 325 325 325 323 321 320 319 319 318 316 313 311 309 307 303 300 298
314 318 316 320 325 318 314 315 314 314 314 313 313 314 317 315 314 316 312 307 310 317 323 317 315 315 313 314 311 306 305 307 308 308 311 311 311 311 309 309 308 308 310 311 312 312 315 316 315 317 317 319 323 326 328 327 328 329 329 329 329 330 330 331 330 330 330 330 331 330 329 329 329 329 327 325 325 326 325 325 325 324 324 322 320 320 319 318 317 315 312 309 307 304 301 298 298
315 317 318 322 325 320 313 312 312 312 314 313 313 317 324 323 317 314 310 309 313 317 321 318 315 315 313 313 311 310 305 304 306 307 310 310 311 310 309 309 308 309 311 311 313 314 316 316 316 317 317 319 323 326 327 327 326 327 327 328 328 329 329 330 329 329 329 330 329 328 328 328 328 327 325 324 325 325 325 324 324 323 322 321 320 319 319 317 316 314 310 308 304 302 300 298 298
318 314 321 326 318 320 318 312 314 312 312 311 312 317 323 325 320 312 308 309 314 319 321 316 315 314 313 313 311 311 306 303 306 307 309 310 310 310 309 309 308 310 311 311 314 315 316 316 317 317 317 320 323 325 325 325 326 325 326 327 327 327 327 327 328 328 328 329 328 327 328 328 326 325 324 325 325 325 325 324 323 321 321 320 319 319 318 316 314 312 310 307 303 300 299 298 297
323 312 322 326 316 325 326 314 315 314 310 310 312 318 320 319 318 311 306 308 312 317 319 315 315 314 313 312 310 310 307 303 304 306 307 309 310 309 308 308 309 311 311 312 313 315 316 316 317 318 318 320 322 324 323 324 325 324 326 325 324 326 326 326 326 326 326 326 326 326 326 326 325 324 324 324 324 324 324 323 321 320 320 320 319 318 317 316 313 310 307 306 303 300 298 297 296
327 316 320 325 319 325 322 313 313 314 312 311 312 318 321 319 317 310 307 309 311 315 317 315 313 312 311 310 308 309 307 305 304 304 306 308 309 309 307 308 310 311 311 311 312 314 316 317 318 318 319 320 321 322 321 322 324 323 324 323 323 324 325 325 324 324 324 324 324 324 324 324 323 323 322 322 322 322 322 322 321 320 320 320 319 317 316 314 312 308 304 304 303 300 298 297 295
323 318 320 323 321 320 319 318 313 310 312 313 313 314 317 318 315 312 311 311 312 317 319 315 311 310 309 308 307 308 307 308 306 303 305 308 309 308 308 309 311 312 311 311 313 314 315 317 317 318 319 320 320 320 319 321 321 322 323 323 323 324 324 324 323 323 323 323 323 322 322 322 322 322 321 321 321 321 322 321 320 320 319 319 317 314 313 311 309 307 303 302 301 300 298 297 295
323 323 323 322 319 317 320 323 314 310 313 314 315 314 314 315 313 313 315 313 314 319 317 313 310 309 308 307 307 307 306 307 306 303 305 308 309 308 308 310 311 312 312 312 313 313 314 316 316 317 317 318 318 318 318 319 319 320 322 321 321 322 323 322 322 322 322 322 322 321 321 321 321 321 320 320 320 321 320 319 317 316 315 315 313 311 309 308 306 305 303 301 300 299 298 297 296
325 331 335 329 322 320 323 325 317 311 312 316 315 314 314 313 313 313 315 314 314 316 313 310 309 309 307 306 306 306 306 306 304 303 305 308 309 308 309 310 310 312 312 312 313 313 313 314 315 315 316 316 317 316 316 316 316 318 319 318 319 320 322 321 321 322 321 321 321 321 321 320 320 319 318 318 318 317 314 311 309 308 308 309 308 308 307 306 305 304 303 301 299 298 297 296 296
325 331 334 328 322 323 324 322 317 311 313 320 317 314 314 313 313 313 311 313 314 314 313 311 310 308 308 307 306 306 306 305 303 303 305 307 308 308 309 310 311 311 312 312 312 312 313 314 314 314 313 315 316 315 315 315 315 317 316 316 318 319 319 320 320 320 320 320 320 319 319 318 317 315 314 315 314 311 307 304 303 302 303 304 305 306 306 305 304 303 302 300 299 298 296 294 294
328 326 324 324 323 325 322 317 316 313 314 320 320 315 315 313 313 312 310 312 313 313 313 312 311 309 308 308 307 306 306 304 302 302 303 306 308 308 308 310 310 310 310 311 311 311 312 313 314 313 312 312 313 314 314 314 316 317 315 315 316 316 315 318 319 319 318 317 317 317 317 316 313 311 312 311 308 306 304 302 301 301 302 303 304 305 305 304 303 303 302 300 299 298 296 293 293
330 324 320 323 323 321 319 315 315 315 313 321 324 318 315 314 313 313 312 312 311 310 311 311 311 311 310 308 308 307 307 306 304 302 302 304 307 307 308 309 310 309 310 311 310 311 311 311 312 311 311 311 312 313 313 313 314 314 315 315 315 314 313 314 317 318 316 314 314 314 313 312 310 310 308 307 305 304 302 300 300 302 302 303 304 304 304 303 302 302 302 301 299 298 295 293 293
326 324 322 325 323 320 317 316 317 315 312 319 323 318 315 315 314 314 313 313 314 312 311 310 310 311 310 310 309 308 307 307 306 304 302 302 304 306 308 309 309 309 309 309 309 310 310 310 310 310 310 311 312 312 312 313 312 312 313 312 313 314 312 310 313 314 311 312 313 311 310 310 310 309 305 303 303 300 297 297 299 301 303 303 303 304 304 303 303 302 301 301 300 298 295 293 294
324 323 325 328 326 322 318 318 319 318 315 316 320 320 321 322 320 320 319 318 318 313 312 313 310 309 309 309 309 309 308 307 306 304 302 301 303 305 308 309 308 309 309 308 308 309 310 309 309 310 310 310 311 312 312 313 313 312 310 308 308 308 307 307 310 310 307 310 312 310 311 310 308 305 301 299 298 296 295 296 297 299 301 302 302 303 304 303 302 302 300 300 300 299 296 293 293
326 323 322 324 324 322 319 320 321 324 325 318 316 320 329 333 330 327 330 331 326 319 317 318 314 311 310 309 308 308 308 306 305 304 302 302 303 305 308 309 308 309 308 308 308 310 310 309 309 309 310 309 310 311 311 312 313 314 312 311 308 304 301 304 309 310 308 310 311 310 309 305 301 299 296 295 295 294 295 294 295 296 298 300 301 301 302 302 301 301 300 300 298 297 296 293 290
323 319 318 317 317 318 318 319 319 326 328 316 314 321 325 327 324 324 331 335 330 323 321 319 315 313 313 311 309 307 307 306 304 303 302 301 303 305 308 308 308 308 308 307 308 309 308 309 308 309 308 308 309 309 309 310 312 313 312 312 313 310 306 305 307 311 311 310 309 307 303 298 295 295 293 293 293 293 294 293 294 294 294 296 296 296 297 297 297 297 297 296 295 293 293 291 289
323 317 318 318 317 320 320 319 319 325 325 316 319 327 323 321 321 324 326 327 325 323 323 320 317 317 318 314 309 307 306 305 304 303 302 301 303 306 308 308 308 308 308 307 307 306 306 307 308 308 308 308 308 308 308 309 311 312 309 308 311 312 312 310 309 310 309 308 306 301 297 294 292 293 292 293 293 293 293 293 293 293 293 293 293 293 293 292 292 292 292 292 291 291 291 291 289
321 313 316 319 320 323 323 325 326 324 323 320 321 322 323 326 327 325 322 321 323 326 324 319 320 324 325 320 311 306 305 304 303 303 302 301 303 306 308 308 308 307 307 307 306 305 306 306 306 306 306 307 307 306 307 308 310 310 307 308 309 309 310 311 308 307 306 304 301 296 293 292 291 292 292 292 292 292 292 292 292 292 292 292 292 292 292 291 291 291 291 291 291 290 290 291 290
314 309 314 317 319 322 324 329 330 327 326 324 323 323 321 323 326 325 321 322 327 326 320 318 322 325 325 324 315 306 305 304 303 302 301 301 303 306 308 307 307 307 307 307 306 305 305 304 304 303 304 305 306 306 307 307 307 307 306 309 311 308 308 306 303 302 301 299 296 292 291 291 291 291 291 291 291 292 292 292 292 292 292 292 292 292 291 291 291 291 291 290 290 290 289 289 289
312 316 322 321 323 324 325 327 325 326 329 324 321 322 319 319 327 329 323 323 327 324 321 325 328 325 324 327 317 307 305 304 303 302 300 300 303 305 307 307 306 306 306 307 305 304 304 303 302 302 302 303 304 305 306 306 305 305 305 309 312 310 308 304 300 298 296 293 292 291 290 291 290 291 291 291 291 291 291 291 291 291 291 291 291 291 291 290 290 290 290 289 289 289 289 288 288
316 329 329 322 325 324 324 326 324 326 329 322 316 317 317 319 326 328 324 323 322 321 324 330 332 328 328 327 315 306 305 303 302 302 300 300 302 305 307 307 306 305 304 304 304 303 303 302 302 301 300 301 303 304 305 305 304 303 304 308 311 311 309 305 302 299 294 291 291 290 290 290 290 290 290 290 290 290 291 291 291 291 291 291 291 291 290 290 290 289 289 289 288 288 287 287 287
321 329 325 321 325 323 321 326 325 327 323 315 313 316 318 318 320 321 321 323 323 319 318 323 328 329 329 325 315 307 303 302 301 301 301 300 301 305 306 306 305 304 303 302 302 302 301 301 301 300 300 301 302 304 304 305 304 303 304 307 308 308 308 304 302 299 294 291 291 290 290 290 289 289 289 290 290 290 290 290 290 290 290 290 290 290 290 289 289 289 288 288 287 287 286 286 286
321 324 323 323 323 325 331 329 321 320 319 312 310 316 320 321 320 319 318 317 320 320 315 316 320 321 321 318 313 308 302 301 301 300 300 300 301 304 305 306 305 304 303 302 301 301 300 300 301 301 301 301 302 303 303 303 302 302 303 305 305 305 305 302 300 297 293 291 291 290 290 290 289 289 289 289 290 290 290 290 290 290 290 290 290 289 289 289 288 288 288 287 286 286 285 286 285
320 321 321 323 325 329 336 334 325 321 322 317 311 316 326 327 323 320 318 317 320 321 318 314 313 313 312 310 310 309 304 300 299 300 300 299 300 303 305 305 305 303 302 301 300 300 300 300 301 301 301 300 300 301 301 300 300 300 300 300 302 303 302 300 297 295 293 291 291 290 290 289 289 289 289 289 289 289 289 289 290 290 289 289 289 289 288 288 288 287 287 286 286 285 285 285 285
318 319 319 321 323 323 321 318 320 322 323 322 318 319 325 325 321 318 317 320 323 322 318 316 315 312 310 310 309 309 306 300 299 299 299 299 299 302 304 305 304 303 302 301 300 299 299 299 300 300 301 301 300 300 299 298 299 300 298 298 300 300 299 297 294 293 291 291 291 290 290 289 289 289 289 289 289 289 289 289 289 289 289 289 289 288 288 288 287 287 287 286 285 285 285 285 284
317 318 322 320 316 323 322 313 311 313 318 322 322 323 321 318 319 318 317 320 322 321 320 320 318 314 313 314 310 308 306 301 299 299 298 298 299 300 303 304 304 303 302 301 300 300 300 300 299 299 299 299 299 298 297 297 298 298 296 296 297 298 297 295 294 292 291 290 290 290 290 289 289 289 289 289 289 289 289 289 289 289 289 288 288 288 287 287 287 286 286 286 285 285 284 284 284
319 322 323 316 313 322 326 320 321 320 322 325 323 322 321 319 320 319 317 319 319 319 321 323 320 316 317 317 311 308 306 301 299 299 298 298 298 299 302 303 304 303 302 301 301 300 300 300 300 299 298 298 298 297 296 295 296 295 294 295 295 296 296 295 293 292 291 290 290 290 289 289 289 289 289 289 289 289 289 288 289 289 288 288 287 287 287 286 286 286 286 285 285 284 284 284 283
318 321 318 317 321 324 321 322 328 327 326 329 327 321 318 318 319 319 320 325 326 321 319 320 320 319 320 319 314 308 305 301 299 298 298 297 297 298 300 302 303 303 302 301 300 300 300 300 300 300 300 301 301 299 296 295 296 294 294 295 296 296 295 293 292 291 290 290 290 290 289 289 289 289 289 289 288 288 288 288 288 288 288 287 287 286 286 286 286 286 285 285 285 284 284 284 283
314 315 313 316 323 323 321 322 323 324 325 327 329 324 318 319 324 323 321 326 330 327 323 319 318 319 320 318 315 311 306 302 300 298 298 297 297 298 299 301 302 303 302 301 299 299 299 299 299 299 300 300 299 298 296 295 296 294 293 294 294 294 294 292 291 290 290 290 290 290 290 289 289 289 289 289 288 288 288 288 288 288 287 287 286 285 285 285 285 285 285 285 284 284 283 283 283
316 317 316 317 318 318 321 320 319 324 328 328 328 325 319 321 325 325 323 325 326 327 328 325 319 320 321 318 315 313 308 303 299 298 298 297 296 297 298 300 301 302 302 300 299 299 299 299 298 298 298 297 296 295 295 295 295 294 293 293 293 292 292 291 290 290 290 290 290 290 289 289 289 289 288 288 288 288 288 288 288 288 287 286 286 285 285 285 285 285 285 284 284 283 283 283 283
316 317 317 317 318 319 320 319 317 321 324 324 325 322 318 321 323 324 325 328 324 321 324 329 325 319 320 321 317 313 310 305 300 298 298 296 296 296 297 299 300 300 301 300 299 299 298 297 297 297 297 296 296 296 296 295 294 293 294 294 293 292 291 290 289 289 289 289 289 289 289 289 288 288 288 288 288 288 288 288 288 287 287 286 285 285 285 284 284 284 284 284 284 284 283 283 283
Wind_Speed
5 4 2 2 2 3 3 5 2 2 3 2 1 0 2 1 0 1 1 1 0 1 2 1 1 1 1 2 4 5 3 1 2 1 1 1 2 4 7 4 2 4 6 8 10 10 8 10 9 9 10 8 5 8 11 12 11 12 12 11 12 12 12 13 13 14 14 15 16 16 16 17 18 18 18 18 17 17 18 19 20 19 19 18 17 18 17 17 18 18 19 19 18 18 19 18 17
4 3 3 4 4 2 1 3 3 3 4 2 1 1 2 2 1 2 3 2 2 1 1 2 3 3 3 4 4 4 3 1 1 1 0 2 3 4 6 5 3 3 6 8 11 10 9 11 10 9 10 9 6 8 10 10 10 11 11 10 11 11 11 12 12 12 13 14 15 15 15 17 17 18 18 18 17 17 17 18 19 19 19 18 18 18 18 18 18 19 19 19 18 19 19 18 17
3 1 3 4 5 4 2 3 2 1 3 2 2 3 1 0 2 4 4 4 3 2 1 0 2 2 3 3 2 2 2 0 0 1 1 2 3 2 4 6 5 5 7 8 10 10 10 11 11 10 11 10 7 7 10 10 10 11 11 10 11 11 11 11 11 11 13 13 14 14 15 16 16 17 17 17 18 18 17 18 19 20 19 18 18 18 18 18 19 20 20 19 19 19 19 18 17
3 1 1 2 3 4 3 4 2 2 2 2 1 3 2 2 5 4 4 4 2 1 1 1 1 1 1 3 1 1 2 1 1 1 0 2 3 2 4 8 8 8 9 9 9 10 10 12 11 11 11 11 8 7 9 11 11 11 11 11 11 11 10 10 10 10 12 13 14 14 14 15 15 16 16 17 18 18 18 17 18 19 19 18 18 18 19 20 20 20 20 20 19 19 18 18 17
4 3 2 3 3 2 3 3 2 3 2 3 2 2 3 4 5 4 5 4 3 2 2 1 1 1 1 2 1 1 1 1 1 1 2 2 3 3 4 9 10 10 10 9 9 9 10 12 12 12 12 11 9 7 9 10 12 12 12 12 11 11 10 10 9 10 11 12 14 13 14 14 15 15 16 17 18 18 18 17 18 19 19 18 18 19 20 21 21 21 21 20 20 19 18 18 18
8 9 9 8 4 1 3 3 3 2 3 4 2 3 4 5 4 4 3 4 1 2 3 0 1 2 1 0 1 2 2 2 2 2 3 3 4 5 7 10 10 11 11 10 9 9 10 11 11 12 12 11 10 8 8 9 11 12 11 11 12 11 11 10 9 9 11 12 13 13 13 14 14 15 16 17 17 18 18 17 17 18 19 19 19 19 20 21 21 21 21 20 20 19 18 18 17
4 5 7 9 4 2 3 3 3 1 2 3 1 3 4 4 3 3 1 1 1 0 1 0 0 3 1 1 0 1 2 2 2 2 3 5 6 7 8 9 8 10 12 12 9 10 11 9 10 11 11 11 10 8 8 8 9 10 9 11 12 11 11 10 9 9 10 11 12 13 13 14 14 15 16 16 17 17 17 17 17 19 19 19 19 20 21 21 21 21 21 20 19 18 18 17 18
3 2 1 5 3 3 4 3 3 2 0 2 2 3 3 4 4 3 1 1 2 0 1 0 1 2 0 1 1 2 2 2 3 3 3 6 8 8 9 9 8 8 11 12 9 11 11 7 10 11 10 9 10 9 8 8 7 9 10 11 12 11 11 9 9 9 9 10 11 13 13 13 14 15 15 15 16 18 18 18 17 18 19 19 20 20 21 21 21 22 21 20 19 18 18 19 19
7 3 1 4 3 3 2 2 1 2 2 3 3 3 3 3 3 2 1 1 0 1 1 2 1 0 1 1 0 2 2 3 4 3 3 6 9 9 10 9 8 7 10 12 9 10 9 6 10 12 12 11 11 11 9 8 7 8 10 10 11 11 11 9 8 8 8 10 10 12 12 12 13 14 15 15 17 18 19 19 18 18 19 19 20 20 21 21 21 21 20 19 18 19 19 19 18
6 4 2 3 3 3 2 0 1 1 3 4 3 4 3 3 3 1 1 1 0 1 2 2 1 1 2 2 1 1 3 4 6 4 3 7 9 10 10 8 7 7 9 13 11 9 6 4 7 10 13 14 12 12 10 8 7 7 9 10 11 11 11 9 8 8 8 9 9 10 11 12 13 13 14 15 17 18 19 19 18 18 18 18 19 20 21 21 21 21 19 18 19 19 19 18 16
4 3 2 4 3 2 2 2 2 2 3 3 2 4 4 4 4 2 1 1 1 1 1 1 2 2 2 1 1 2 3 5 7 6 4 7 9 10 10 9 7 6 8 11 11 9 7 5 5 5 9 12 12 11 11 9 7 7 8 10 11 10 10 9 8 7 7 8 9 9 10 11 12 12 13 15 16 18 19 19 18 18 18 18 18 18 19 19 20 21 19 19 18 18 17 16 15
3 2 4 4 2 2 3 4 3 3 5 3 1 2 2 5 4 2 3 3 1 0 2 2 1 2 2 2 2 2 4 5 7 7 5 6 9 10 10 11 9 7 8 10 10 10 8 6 6 5 5 8 10 11 11 10 9 7 6 9 12 10 9 8 7 7 7 8 8 9 9 10 11 11 12 14 15 17 18 18 18 19 19 19 19 19 19 19 19 19 18 18 17 16 15 15 14
3 2 5 3 2 2 3 4 2 2 4 2 3 1 2 5 3 5 5 3 2 2 3 3 1 1 1 2 1 1 4 6 7 8 6 6 8 10 11 11 10 8 8 9 10 9 9 9 6 5 4 3 7 11 11 11 10 8 6 9 12 10 9 8 7 7 7 8 8 8 8 9 10 10 11 13 14 15 17 18 18 19 20 20 20 20 20 20 19 19 18 17 17 16 16 16 17
3 3 5 3 1 2 3 3 1 2 2 4 2 1 2 2 2 4 6 4 4 4 1 1 2 2 1 2 2 2 4 6 8 8 7 6 6 10 10 11 11 9 9 9 10 10 10 11 7 6 6 3 5 8 10 12 11 9 8 9 12 10 9 8 7 6 6 8 8 7 7 8 9 9 10 12 13 15 16 17 18 19 20 21 21 20 21 21 21 21 20 19 19 19 19 20 20
4 3 4 4 1 1 3 2 2 5 4 4 2 3 3 0 2 3 5 5 4 3 1 0 1 2 2 2 2 2 5 8 9 9 8 8 6 8 10 11 11 9 10 9 10 11 11 11 10 9 10 7 7 8 9 11 11 10 10 10 11 11 10 8 6 6 6 7 7 8 7 8 9 8 10 11 12 13 15 17 18 19 21 22 22 22 22 22 22 22 22 21 22 22 23 23 23
3 4 5 3 2 1 3 2 2 3 4 4 1 2 4 1 2 2 3 3 1 1 1 1 0 0 2 3 2 1 6 9 10 10 10 10 7 8 9 10 11 9 10 9 9 10 10 11 11 11 11 10 10 10 9 10 12 11 10 10 11 11 11 9 7 6 7 7 7 8 7 8 8 8 9 10 11 11 13 15 17 18 21 23 23 23 24 24 23 23 23 23 24 24 24 25 25
3 4 5 2 3 3 4 4 4 4 4 4 2 2 6 1 1 1 1 3 3 0 2 2 1 1 3 2 2 1 7 9 10 12 11 12 10 11 11 10 11 10 10 10 9 7 8 9 8 9 12 11 10 9 10 11 11 11 11 10 10 11 11 10 9 8 8 8 8 8 8 9 8 8 8 9 10 9 11 13 15 17 19 22 23 24 25 25 25 24 24 25 25 25 25 25 25
4 3 4 2 3 4 6 8 7 4 3 6 4 3 6 3 2 1 1 3 2 1 3 2 3 3 4 3 2 4 10 10 11 13 12 12 12 12 12 11 11 10 10 8 7 6 5 6 6 6 9 11 12 11 13 14 12 11 11 10 10 10 10 11 10 9 9 9 9 9 9 10 8 8 9 8 9 8 9 11 14 16 17 20 22 23 24 24 24 24 24 24 24 24 24 25 24
4 3 3 3 6 5 5 8 6 2 3 6 3 2 4 4 4 3 2 1 3 1 3 3 4 5 3 2 2 7 10 11 11 13 13 13 12 12 10 10 11 10 10 8 6 5 5 5 5 5 6 9 10 10 11 14 13 12 11 10 9 8 7 8 10 10 10 10 10 10 10 11 9 9 10 8 9 8 9 10 12 15 16 18 19 21 22 23 23 23 23 23 22 22 23 24 23
2 4 3 4 6 3 3 6 6 3 3 7 4 2 1 2 3 2 3 1 1 4 5 2 4 7 4 2 6 9 10 10 11 12 13 13 12 13 11 9 9 9 9 10 8 6 7 7 6 6 7 7 8 8 8 12 12 13 13 12 9 9 9 8 9 9 8 10 10 10 11 12 11 10 11 10 10 10 9 10 11 14 15 17 18 19 20 21 21 21 21 22 22 22 22 23 22
2 3 3 3 2 1 2 5 5 2 3 6 5 3 1 2 2 2 4 3 3 6 6 7 8 7 6 4 7 11 10 10 10 11 13 13 13 12 12 12 12 11 11 11 11 10 10 9 9 9 8 8 8 7 8 10 13 15 15 14 12 12 12 11 11 9 7 10 10 10 11 12 12 12 12 12 13 12 10 9 11 13 15 16 16 17 19 18 18 19 20 21 22 22 23 22 21
3 2 2 3 2 2 1 3 3 3 3 5 6 4 2 2 1 2 6 5 5 5 5 7 7 5 8 8 10 11 11 11 10 11 12 13 13 12 12 12 13 14 13 13 13 13 13 12 13 13 12 11 10 9 8 8 11 14 15 14 14 14 13 13 14 11 9 11 12 11 13 13 14 15 13 13 14 14 11 11 12 13 14 15 14 14 16 15 16 18 19 21 21 22 22 22 22
4 1 1 3 2 2 1 1 3 4 6 6 5 3 2 3 1 1 6 8 7 4 3 4 5 5 8 10 12 12 12 13 12 12 13 12 12 12 12 11 11 12 12 13 13 14 14 15 15 16 15 13 13 12 10 9 9 13 15 16 15 16 16 15 14 13 13 14 12 10 12 13 15 17 15 14 16 16 14 13 13 13 14 14 12 12 14 13 14 16 18 20 21 22 23 24 24
5 2 1 2 2 1 1 1 3 4 5 4 3 2 3 2 3 1 4 11 6 3 2 2 5 5 8 10 10 11 13 14 13 13 12 11 11 10 10 9 9 10 10 10 12 13 14 15 16 17 17 16 15 14 14 13 13 13 12 13 15 17 17 16 15 13 12 11 9 9 13 15 17 19 18 17 18 17 17 16 15 14 15 15 13 13 15 13 14 17 19 21 22 23 24 25 26
5 3 2 1 0 2 1 2 4 3 2 2 2 2 2 4 2 0 8 11 3 1 2 2 4 6 8 8 8 9 10 12 12 12 11 11 10 9 8 8 8 9 9 10 11 12 12 14 16 17 17 17 16 15 15 15 16 14 11 11 15 16 16 16 16 15 13 11 12 13 15 17 18 19 20 19 20 19 18 18 17 15 16 16 14 15 16 16 18 20 21 22 23 24 25 26 28
2 3 2 2 2 4 1 3 4 2 1 1 2 1 3 2 1 3 8 6 2 2 4 3 5 6 5 5 6 8 9 11 12 12 11 11 10 9 8 8 8 8 8 9 9 10 10 12 13 15 17 17 17 16 15 15 15 15 13 13 13 14 16 18 17 16 15 14 14 13 11 15 16 16 16 16 20 20 18 18 18 17 17 17 17 17 17 18 20 21 21 22 23 24 26 28 29
3 4 3 4 2 3 2 3 3 2 1 1 3 2 4 3 1 4 4 1 2 3 4 2 4 5 4 3 4 7 9 11 13 12 11 11 11 11 10 8 8 8 8 7 6 6 6 7 7 8 14 16 16 16 15 14 14 14 14 16 16 15 17 18 17 17 15 12 11 10 9 11 13 13 13 14 17 19 18 16 17 17 16 17 17 19 19 18 20 21 21 22 23 25 27 28 28
2 3 3 5 5 3 4 3 3 2 1 2 4 1 4 3 1 4 1 1 1 4 3 2 3 4 3 3 3 6 8 11 12 13 14 14 13 12 10 9 8 7 6 5 4 4 2 3 3 3 10 14 14 15 16 15 13 13 15 16 17 16 16 15 15 15 13 12 10 10 9 8 10 11 13 15 17 18 17 14 14 14 13 14 16 18 19 20 21 22 22 23 24 26 28 29 29
1 2 2 5 7 4 4 3 3 2 1 2 3 1 5 3 6 4 1 0 2 4 4 3 3 3 2 3 2 4 7 10 11 13 15 13 11 10 8 8 7 6 5 4 3 2 2 3 4 3 8 12 14 15 17 17 14 12 14 15 16 16 16 16 14 13 12 12 12 12 10 8 9 10 13 16 17 17 16 13 12 13 13 15 17 18 20 21 21 23 24 25 26 27 30 30 29
1 3 3 3 6 4 3 3 2 1 2 1 1 2 5 7 11 6 2 2 4 2 5 4 4 4 3 3 3 4 7 10 12 14 14 11 10 9 7 6 6 5 4 4 3 3 3 4 4 4 7 11 14 16 17 19 16 13 12 13 15 16 17 16 14 14 14 14 15 15 12 10 10 11 15 16 16 15 14 14 14 15 16 17 19 20 20 21 22 24 25 26 28 28 30 30 29
2 2 2 2 1 4 5 2 1 4 1 2 2 3 6 8 10 6 3 3 5 5 6 5 5 4 4 4 4 5 6 11 13 14 13 11 11 9 8 7 6 5 5 5 4 4 4 4 5 5 7 11 14 16 17 19 17 15 13 14 17 16 15 15 16 17 18 17 17 15 15 14 12 14 16 14 14 14 13 14 14 16 17 18 20 21 21 22 24 25 25 27 30 30 31 30 29
3 1 2 3 1 5 7 2 3 2 1 2 2 3 6 9 9 5 3 3 4 6 7 5 6 6 5 5 5 4 5 11 14 14 13 12 12 10 9 9 7 6 7 7 6 6 7 6 7 8 9 12 14 16 18 18 17 17 16 17 18 16 15 16 17 18 18 18 16 16 18 16 15 15 14 12 12 12 12 14 16 18 19 18 20 21 21 23 24 26 26 27 30 32 31 31 30
4 1 2 1 1 3 5 1 1 1 1 1 1 2 4 5 5 4 2 4 4 5 8 7 7 7 6 5 5 4 5 7 11 15 15 15 14 11 9 10 8 7 8 8 8 8 10 10 10 11 13 14 15 17 19 19 20 21 20 19 19 18 18 18 18 18 17 18 17 18 17 15 16 16 14 12 12 12 13 15 18 19 20 19 20 21 21 22 24 28 29 27 28 31 32 31 30
4 3 1 3 2 2 3 2 2 3 2 2 2 3 7 7 6 5 2 5 5 6 10 9 7 7 6 5 5 5 5 5 9 15 18 17 15 12 10 10 10 9 9 9 9 9 11 13 13 13 14 16 17 17 19 21 22 23 21 21 22 22 21 20 19 19 18 19 18 18 17 15 17 16 14 14 13 14 14 16 18 19 20 20 21 23 23 24 26 28 30 29 28 30 31 31 30
3 2 1 2 2 3 4 3 1 2 1 3 3 5 11 12 11 9 4 5 6 9 10 7 6 7 8 7 7 6 6 6 9 16 19 19 16 13 12 12 11 11 10 10 10 10 12 14 15 15 15 16 18 19 20 22 23 23 22 22 23 23 21 19 19 18 19 19 17 18 18 17 16 15 14 15 15 16 16 17 19 19 20 21 22 24 26 27 28 28 29 31 29 29 29 29 28
7 5 4 3 3 4 5 5 4 1 1 4 6 7 11 11 11 11 6 4 6 9 8 7 7 8 8 8 8 7 8 9 10 14 19 20 18 16 14 13 13 13 12 12 12 12 13 15 17 17 17 17 19 21 22 23 24 24 24 23 22 21 20 20 19 19 19 19 18 18 19 18 17 17 17 17 17 18 19 19 20 21 21 22 24 26 28 28 28 28 29 31 31 30 28 27 26
7 5 4 4 3 4 5 3 5 1 2 6 7 7 10 10 11 13 8 3 6 10 9 10 10 9 9 10 10 10 9 8 8 14 19 21 19 17 16 16 15 14 14 15 14 14 15 16 18 18 19 20 21 23 24 24 23 23 24 24 22 22 21 21 21 20 20 20 20 20 19 18 18 19 20 19 19 20 20 20 20 22 23 23 25 27 28 28 28 29 30 30 30 30 29 26 25
6 5 4 1 4 6 5 1 4 2 2 6 5 5 11 11 11 13 8 5 9 12 12 13 13 11 10 11 12 10 7 4 6 13 18 21 21 19 18 17 17 16 17 17 17 17 17 17 19 19 20 21 22 23 23 22 22 22 23 24 24 25 24 23 22 21 21 21 22 21 20 20 20 21 22 20 21 20 20 20 21 23 24 25 27 28 28 28 28 28 29 29 28 28 27 26 24
5 4 4 2 3 4 5 2 4 2 2 5 5 6 10 10 11 14 13 11 11 11 12 13 12 11 12 11 10 9 7 5 6 9 16 21 21 20 19 18 18 18 18 19 19 19 19 19 20 21 22 22 22 23 23 23 22 23 23 24 25 25 24 23 23 22 22 22 22 22 22 22 22 22 22 22 21 20 20 21 22 24 26 26 27 29 28 28 28 27 25 25 26 27 24 22 20
3 4 4 3 2 1 3 3 4 2 1 3 5 8 9 8 10 13 13 10 9 10 11 11 10 13 14 9 7 9 10 9 8 7 12 19 21 21 20 19 19 19 19 20 21 21 21 21 22 23 24 24 23 23 23 24 24 23 23 24 24 24 24 24 25 25 24 23 22 23 23 23 22 22 23 22 21 21 22 23 24 26 27 26 26 28 28 27 27 25 23 22 23 25 21 17 13
2 4 5 3 3 4 5 3 4 2 2 2 4 7 7 4 5 9 7 4 8 9 8 11 12 13 12 8 6 9 10 11 10 8 10 17 21 22 21 20 20 20 20 21 22 23 23 22 23 24 25 24 25 25 25 25 25 24 23 24 23 22 23 24 25 25 25 25 25 24 24 23 23 23 23 23 23 23 24 23 24 25 26 26 25 25 26 26 25 23 21 20 19 19 19 15 9
4 4 8 7 5 4 3 3 5 4 3 3 4 4 6 3 3 7 5 4 7 6 5 12 13 9 8 8 8 8 8 9 10 10 11 17 21 21 21 22 22 22 21 21 23 24 24 24 25 25 25 25 26 26 26 25 25 25 27 28 27 25 24 24 26 26 26 26 26 25 25 24 25 25 25 25 24 24 24 24 24 25 25 25 24 24 25 24 23 21 19 17 15 15 16 17 15
2 4 7 7 5 4 2 1 1 1 3 2 3 2 6 6 4 7 5 5 9 8 8 13 10 7 7 7 8 7 7 7 7 9 10 15 19 21 22 23 24 24 22 22 24 24 24 26 26 26 26 27 27 26 25 25 26 28 30 29 30 29 28 27 26 27 27 26 26 27 27 27 27 27 27 26 26 25 25 24 24 24 25 25 24 24 23 23 21 19 18 16 15 14 14 16 20
3 3 4 7 7 5 4 3 2 2 3 3 2 4 3 8 6 5 4 5 9 11 14 15 6 5 8 7 7 7 7 7 7 7 8 13 20 22 23 25 26 24 23 24 25 25 25 26 27 27 27 27 28 27 26 27 29 30 29 27 29 30 29 29 28 28 28 27 27 28 28 29 29 28 28 27 26 25 25 24 24 24 25 25 24 23 23 22 21 20 19 16 15 15 12 14 18
4 3 6 6 6 5 5 5 2 1 3 4 1 4 2 8 6 3 4 2 7 11 16 13 5 5 7 6 6 5 5 6 7 8 9 15 22 24 25 25 25 24 24 25 25 26 26 27 28 28 28 28 28 27 27 29 30 30 27 27 29 28 28 30 30 29 29 29 30 30 30 31 30 29 28 27 27 26 25 25 25 25 25 25 24 23 23 22 21 20 19 17 16 15 13 12 15
3 6 7 6 6 5 5 4 3 2 3 3 5 5 3 6 5 0 1 1 6 11 12 9 7 7 6 4 4 3 3 4 6 8 11 17 23 24 24 24 24 24 26 26 26 27 28 27 28 29 28 28 28 28 29 30 30 28 27 29 29 29 29 31 31 31 31 31 32 32 32 31 31 30 29 28 27 27 26 26 25 25 25 24 24 23 23 22 21 19 18 17 16 16 16 14 15
7 7 6 7 5 5 4 2 4 2 4 5 6 7 3 4 5 3 3 4 6 8 7 7 7 6 5 4 3 3 3 4 5 6 10 17 20 21 23 23 23 23 26 27 26 28 29 29 29 29 28 28 28 29 31 32 31 29 29 30 30 30 32 34 34 33 33 34 34 34 33 32 31 31 30 29 28 27 27 26 25 24 24 23 23 22 22 21 20 19 18 17 16 17 17 17 18
6 5 5 4 3 4 4 4 4 1 5 4 3 2 1 5 7 3 5 7 6 6 6 7 7 6 4 3 2 3 4 5 6 6 8 12 15 18 21 23 23 23 25 27 28 29 29 30 30 29 28 28 28 30 32 33 31 30 30 31 30 30 31 34 35 36 37 37 36 35 34 34 33 32 31 30 29 27 26 25 24 23 23 22 21 21 20 19 19 19 18 17 17 18 18 19 19
4 5 6 4 2 3 2 3 1 2 6 3 2 1 2 8 8 7 11 12 10 9 9 9 8 7 5 3 3 3 4 5 6 6 7 9 12 17 21 23 23 25 26 28 29 30 30 30 30 30 29 29 29 31 33 33 32 31 31 31 31 30 31 34 36 37 39 39 38 38 37 36 35 34 32 30 29 27 25 24 23 22 21 20 20 19 19 18 17 17 17 17 18 19 18 18 19
4 5 6 4 2 1 3 3 1 4 4 2 1 1 3 6 6 11 17 17 12 8 9 9 9 8 6 4 3 4 4 5 6 6 6 8 12 17 20 23 25 26 28 29 30 30 30 30 30 30 30 29 30 32 32 32 31 31 32 32 33 32 31 34 37 38 40 40 39 39 38 37 36 34 32 30 28 26 24 23 22 21 21 20 19 19 19 18 17 17 17 18 19 19 18 18 18
4 4 5 5 5 5 4 3 3 4 3 2 2 1 4 3 3 7 11 10 8 7 7 7 7 7 5 3 3 4 5 5 5 6 7 9 14 18 20 23 25 26 28 29 29 29 29 30 30 30 30 30 30 31 32 31 31 31 32 33 34 32 32 35 38 39 40 40 39 38 37 36 35 33 31 29 28 26 24 23 22 21 21 20 19 19 19 19 18 18 19 19 20 19 18 17 17
2 2 4 3 5 5 2 2 5 2 2 3 2 4 5 4 7 9 7 7 7 7 6 5 9 8 4 5 5 5 5 6 6 7 7 9 15 20 22 24 25 25 27 29 29 30 30 30 31 31 30 30 30 31 31 31 32 32 32 33 33 32 33 36 38 40 40 40 38 37 36 35 33 32 30 29 27 26 24 23 22 21 20 20 20 20 20 20 19 19 20 20 20 19 17 16 15
2 3 3 4 4 6 4 2 1 3 2 4 1 4 5 4 8 10 8 9 9 7 7 6 9 6 4 7 7 6 7 7 7 7 7 10 16 20 22 23 24 25 27 29 30 32 32 31 31 31 29 30 30 31 32 32 32 33 33 33 33 32 34 36 38 40 40 39 38 37 35 34 33 31 30 29 28 26 24 23 22 21 21 21 21 20 20 20 19 19 19 19 18 18 16 14 14
5 3 6 3 2 4 4 1 2 3 3 4 1 5 6 3 6 4 1 6 10 10 9 9 8 5 5 9 7 7 7 6 7 7 8 11 16 20 22 23 25 27 29 30 31 32 32 31 31 31 30 30 31 31 32 32 33 33 34 34 33 33 34 36 38 40 40 39 38 37 36 34 33 32 31 30 28 27 25 23 22 21 21 21 21 20 20 20 19 19 18 17 17 17 15 14 13
4 4 4 4 3 2 2 2 2 1 3 4 4 5 5 6 6 1 2 7 10 11 11 10 9 7 8 9 7 6 6 6 6 7 7 10 14 19 21 23 25 27 29 30 30 30 31 31 31 31 31 31 32 32 33 33 33 34 34 33 32 33 35 37 38 40 40 40 39 38 36 35 34 33 32 31 29 28 26 24 23 22 22 22 21 21 20 20 19 19 18 18 17 16 14 14 13
3 1 2 2 2 3 3 3 3 3 2 3 4 4 6 8 6 6 9 10 10 10 10 9 11 10 8 8 6 6 6 7 7 7 7 8 13 18 22 24 25 27 29 30 30 30 31 31 31 31 31 31 31 33 34 34 34 34 33 33 33 34 36 37 39 40 41 40 39 38 37 36 35 34 33 31 30 28 27 25 24 24 23 23 22 21 21 20 20 19 18 18 17 16 13 12 12
3 3 4 3 1 2 1 1 2 3 3 2 2 5 10 7 5 8 10 10 11 11 9 9 10 11 9 7 5 5 6 7 7 7 7 8 13 18 22 24 25 25 27 29 30 30 31 31 31 31 31 31 32 33 34 34 35 34 33 33 34 35 36 37 39 41 41 41 40 39 38 37 36 35 33 32 30 29 27 26 26 25 24 24 23 22 21 21 20 19 18 17 16 16 13 11 10
5 5 6 7 5 4 2 1 1 2 3 4 3 6 13 7 5 8 8 8 9 9 8 8 8 9 8 6 5 6 6 7 7 7 7 8 13 18 21 24 25 25 26 28 29 30 30 31 31 31 31 32 33 34 35 35 35 35 34 34 35 36 37 38 40 41 41 41 40 40 39 38 37 35 34 32 31 29 28 27 26 25 25 24 23 23 22 22 21 20 19 18 16 15 13 12 10
Wind_Direction
349 4 16 51 65 151 35 49 84 346 76 79 338 67 231 230 323 184 261 276 261 260 223 176 150 141 111 114 136 138 119 128 158 133 162 176 64 150 180 177 180 196 185 173 172 166 151 144 135 124 112 106 103 103 105 104 105 107 107 103 101 99 96 92 91 90 87 85 80 77 73 67 64 62 62 62 65 66 64 61 57 57 58 60 62 64 66 73 78 79 80 80 78 79 83 84 82
349 18 66 83 48 128 208 50 99 344 57 81 267 183 261 316 12 186 205 224 185 180 80 117 122 87 67 81 105 110 82 7 159 156 348 107 85 135 182 185 161 190 184 171 169 163 157 149 137 132 118 110 105 111 114 108 109 111 110 106 103 100 97 94 94 93 89 85 79 77 73 68 67 66 65 64 65 65 63 61 59 57 57 60 62 63 64 70 76 78 80 79 77 81 85 85 84
359 49 96 98 36 58 91 38 88 40 71 92 265 233 273 41 201 211 216 215 179 137 45 170 126 71 54 62 72 79 81 329 152 135 340 105 106 130 192 192 175 179 187 185 174 163 162 154 144 140 125 119 114 119 125 120 120 118 114 113 109 104 102 101 99 99 95 91 85 82 77 72 72 72 70 67 65 65 64 64 64 59 57 59 63 65 65 69 75 77 78 77 78 82 85 86 85
5 68 109 127 45 39 60 40 111 123 101 167 237 242 239 177 193 218 241 234 220 59 359 231 99 19 65 84 99 68 98 167 147 132 161 97 107 128 189 183 175 171 182 203 188 169 164 158 153 144 132 128 123 127 134 132 130 127 122 122 121 114 109 107 106 105 102 98 91 86 81 75 76 76 73 69 65 64 64 64 66 63 60 59 62 66 68 71 74 76 76 76 79 84 86 86 83
57 80 77 98 82 50 90 74 98 93 152 184 147 234 237 201 188 212 263 280 252 212 194 144 85 277 46 98 151 131 124 140 156 173 146 111 119 131 153 161 166 168 177 202 196 182 168 161 160 148 140 137 132 134 137 140 140 136 134 131 129 124 118 114 114 111 109 103 94 89 83 78 78 78 73 68 63 62 62 62 66 66 64 61 62 67 70 73 74 74 75 78 81 84 86 85 83
79 80 69 73 89 133 104 77 88 82 198 173 121 237 233 200 190 195 265 322 281 187 186 192 121 178 61 336 215 157 173 118 144 171 136 138 145 143 141 145 159 169 171 191 201 191 173 163 165 153 144 143 140 139 132 140 150 149 147 138 134 131 127 123 121 116 112 105 95 89 85 82 79 76 71 66 62 61 61 61 66 67 66 65 66 69 72 74 74 74 77 81 83 86 87 85 84
86 74 55 67 58 35 89 99 140 133 182 167 142 226 222 207 198 150 227 337 118 65 132 235 143 131 79 297 224 200 189 122 140 146 132 136 145 147 141 141 157 172 171 183 195 181 173 166 169 162 149 146 142 144 137 136 156 160 155 144 138 136 133 127 125 121 117 108 95 91 87 83 80 76 71 65 63 63 61 63 68 67 67 68 70 73 74 75 75 76 80 82 85 87 89 89 89
67 60 19 75 39 23 87 105 162 192 140 225 242 224 226 208 185 135 197 229 163 285 89 256 332 121 105 37 132 212 169 137 147 135 127 131 144 148 146 150 159 174 172 177 185 177 180 177 175 169 152 152 150 154 150 143 158 163 160 150 143 142 134 130 130 125 121 112 98 93 90 86 82 78 73 66 63 64 63 65 71 70 69 71 73 75 76 77 77 79 82 84 87 90 93 94 93
50 48 75 80 75 40 58 62 156 234 262 261 247 233 242 193 168 130 185 242 267 193 196 250 293 109 176 102 332 237 163 150 157 147 136 139 146 147 152 158 161 176 174 171 176 185 192 175 171 172 163 166 166 163 156 149 155 159 166 160 150 146 136 133 134 127 124 113 101 97 94 91 85 81 77 69 65 65 67 69 73 74 73 74 76 78 79 79 80 82 84 87 92 94 96 95 92
36 31 121 82 79 60 34 112 217 249 249 253 243 226 211 171 152 101 156 168 233 158 221 250 114 67 150 157 261 191 153 156 159 156 143 149 147 147 157 155 157 171 172 172 172 185 196 164 166 178 173 172 171 162 156 154 155 159 166 169 160 150 140 139 137 129 127 115 105 102 99 95 87 84 79 70 67 68 71 72 75 77 78 78 79 82 83 83 83 85 86 91 95 96 96 92 87
33 4 89 82 73 109 174 192 242 264 273 288 266 234 199 159 131 87 86 150 187 171 214 185 143 148 127 244 255 145 150 157 164 161 136 146 149 152 156 146 155 163 164 172 169 175 187 185 185 196 175 170 173 162 158 158 157 164 165 171 165 151 145 145 142 135 132 122 114 110 104 99 90 83 78 71 70 71 74 75 77 79 80 79 79 81 83 86 88 88 89 94 95 93 91 87 84
73 341 59 87 117 169 188 158 219 274 311 320 164 253 180 140 130 160 176 161 154 235 229 189 186 145 114 300 251 154 148 155 164 158 142 150 154 154 153 150 161 165 154 164 170 172 181 194 198 208 188 174 183 166 159 162 161 170 168 173 165 155 154 151 148 143 139 133 125 120 112 103 95 84 78 74 73 74 76 77 79 81 82 81 80 80 81 83 86 88 90 93 92 89 87 84 81
110 157 84 95 156 153 146 135 216 312 328 266 179 246 140 143 184 197 162 133 141 158 240 206 198 111 148 260 273 195 161 157 153 146 144 152 157 153 154 156 163 165 149 158 172 171 178 189 182 190 200 186 188 170 166 168 165 172 164 172 170 162 162 159 154 146 144 140 135 132 123 110 100 91 83 79 78 79 80 80 82 84 85 85 85 85 85 84 85 87 88 90 89 88 86 83 80
124 153 102 113 121 123 142 121 204 163 234 254 206 178 162 175 209 181 143 140 201 184 263 215 160 150 193 239 294 277 168 158 148 142 141 146 158 154 154 158 163 167 161 166 170 173 183 190 183 183 197 198 185 176 180 175 170 176 165 170 176 172 171 170 160 150 151 147 146 145 131 118 109 99 88 83 83 85 85 83 84 86 87 89 90 90 91 91 90 90 90 90 90 88 86 84 83
121 129 86 107 77 84 165 143 163 156 217 229 165 157 136 233 147 143 155 162 221 218 339 356 152 182 195 179 235 263 152 155 149 143 145 147 156 155 156 161 168 171 171 173 171 182 188 190 191 189 196 197 194 191 192 183 176 179 172 173 180 180 180 180 170 156 153 153 156 155 142 128 118 105 95 88 85 86 88 86 85 87 90 91 92 94 95 96 97 96 96 94 93 91 89 88 86
114 115 70 91 127 175 181 162 134 137 236 216 191 156 113 282 164 158 216 148 180 303 8 201 157 142 182 172 232 279 145 156 148 146 150 148 154 164 164 161 168 174 174 176 169 173 172 179 193 198 205 204 198 186 188 198 187 184 181 178 180 183 186 185 182 169 159 161 164 164 155 141 129 115 103 96 89 84 86 88 88 89 93 95 95 96 98 98 99 99 98 96 95 94 93 92 90
70 79 70 88 155 194 187 169 175 162 225 227 259 200 131 187 252 195 240 89 119 307 334 248 252 233 204 214 280 196 157 157 148 152 157 150 155 162 164 163 163 166 167 174 175 164 156 170 188 199 204 207 206 190 191 206 197 189 187 181 181 186 191 192 186 179 174 169 169 175 168 151 144 132 114 102 102 91 87 90 90 92 96 100 99 98 99 98 98 97 96 95 94 94 93 92 90
58 77 99 145 172 198 189 175 193 166 168 199 214 185 141 162 210 178 143 51 37 316 303 288 294 267 236 272 284 171 159 157 157 164 165 160 165 158 156 167 174 174 168 171 181 181 181 182 189 197 203 207 214 215 202 197 198 197 196 193 188 190 197 199 193 184 180 177 177 180 175 164 159 148 131 117 116 103 94 96 93 94 97 102 102 99 98 97 97 96 95 93 93 92 91 89 87
83 109 104 199 192 202 200 171 180 159 140 168 175 157 150 175 167 140 187 306 8 236 273 327 312 274 240 266 170 160 159 163 172 175 172 169 181 181 168 170 179 187 186 192 199 204 218 210 203 203 210 211 213 227 202 182 195 204 206 205 193 197 209 210 201 194 187 182 183 183 178 173 168 158 148 139 135 121 109 107 102 101 100 102 103 100 99 99 99 97 95 94 93 91 88 87 86
124 110 100 232 207 211 224 180 186 204 147 143 151 142 152 214 157 144 192 197 13 214 232 234 263 252 221 202 154 158 166 173 181 181 177 174 185 196 199 199 198 200 202 215 228 233 239 232 227 215 216 218 217 234 197 176 203 211 209 210 210 216 219 225 209 202 202 191 190 189 184 180 176 169 161 158 149 135 124 120 114 110 106 105 105 104 102 102 102 99 97 95 92 89 86 85 84
109 102 157 219 192 129 206 199 196 193 140 135 137 119 139 232 167 153 155 153 272 243 228 209 223 225 199 195 167 167 175 177 183 181 177 177 182 191 200 209 215 221 222 225 233 237 242 242 238 229 229 229 224 232 209 199 210 206 206 204 215 222 215 226 215 208 215 197 197 195 189 188 185 179 171 168 157 145 142 137 129 121 115 112 108 106 104 103 103 101 99 96 92 90 87 84 82
75 43 183 190 149 87 228 218 180 147 98 101 118 138 180 161 138 155 158 193 242 228 231 217 214 202 184 180 171 173 182 182 183 181 178 179 183 188 194 202 210 221 227 231 235 235 237 241 238 231 231 235 233 227 221 224 206 201 212 205 209 220 215 222 214 211 222 208 203 198 194 194 190 186 179 176 167 155 154 147 140 134 125 121 115 110 108 104 104 103 101 98 96 93 90 87 84
90 17 311 210 186 84 324 232 169 135 104 118 146 171 111 87 258 191 178 222 227 209 239 231 234 224 185 166 164 175 186 188 188 188 186 182 183 186 191 199 207 215 223 230 235 235 235 237 239 235 231 235 239 234 233 238 220 211 212 202 208 217 212 218 215 211 219 215 207 201 201 200 195 188 178 183 179 165 159 153 150 150 138 131 129 124 117 111 109 108 106 104 103 99 95 93 90
89 105 297 211 178 53 300 164 131 111 116 165 184 123 104 152 230 60 229 240 236 244 280 251 235 204 171 159 167 181 185 189 191 192 192 190 189 189 192 201 210 219 227 234 240 240 239 238 238 237 232 232 236 239 241 239 239 233 212 201 210 214 210 213 217 215 214 214 222 231 219 207 201 191 177 181 188 175 163 159 157 158 150 142 146 141 130 126 123 119 116 113 110 105 101 98 96
68 129 208 166 89 343 340 110 93 89 109 183 138 105 188 204 191 27 251 248 243 250 58 89 136 143 160 164 174 179 179 186 188 188 190 191 193 194 200 209 220 231 241 247 252 251 248 245 240 236 231 230 233 237 241 239 240 243 234 214 205 209 214 212 214 217 217 223 231 234 222 208 204 197 183 178 186 183 167 162 162 163 159 155 157 152 144 141 136 130 125 119 113 108 104 102 101
98 129 167 100 2 337 64 105 57 37 76 111 143 353 297 238 202 261 260 253 200 112 74 82 122 134 165 166 177 177 177 183 181 185 189 193 198 201 208 219 231 239 250 255 262 263 261 259 250 239 228 223 228 231 235 238 240 244 240 222 208 211 214 209 208 208 212 219 214 208 210 210 205 200 192 180 182 184 174 166 167 170 166 163 165 159 152 148 139 134 129 122 116 111 107 106 105
123 113 118 79 9 331 52 95 28 350 181 140 176 269 304 323 312 253 281 6 133 105 79 85 134 156 173 163 186 184 186 186 183 185 185 193 201 207 215 225 238 246 250 251 260 269 277 285 273 237 217 211 215 221 227 231 233 238 233 224 217 209 200 196 195 191 192 194 187 179 187 205 203 201 204 195 185 184 180 169 164 167 163 161 164 156 148 144 137 133 129 124 120 114 111 110 109
92 115 114 15 357 5 25 39 360 348 175 166 144 196 306 357 282 233 274 10 143 125 137 148 157 182 184 180 197 193 200 194 188 189 190 198 205 212 220 224 235 245 239 229 254 268 270 283 282 220 201 200 204 209 215 219 222 219 213 208 198 191 187 182 178 175 173 173 172 168 169 186 193 197 200 193 184 180 178 169 159 158 153 151 154 148 143 141 138 135 131 126 122 117 115 113 111
67 84 116 337 357 18 354 356 333 344 158 185 129 340 297 244 227 241 8 167 92 118 176 200 200 214 221 221 223 212 213 197 194 201 202 205 208 212 217 219 224 229 219 203 237 253 225 248 259 219 194 194 201 202 200 207 213 199 186 184 180 180 181 178 176 173 174 178 175 166 162 170 171 179 183 176 173 172 169 164 155 147 142 140 144 147 144 142 140 136 130 125 122 120 117 116 113
28 35 81 346 2 351 319 4 345 150 154 275 128 282 276 248 245 268 350 154 118 147 214 225 224 235 244 237 241 235 224 207 206 209 206 203 205 208 208 213 214 205 201 202 210 212 221 245 238 211 198 196 198 198 193 195 204 201 188 183 180 181 179 179 181 179 178 176 168 159 155 155 155 164 164 157 158 159 154 152 147 139 139 140 144 149 147 144 141 137 133 128 125 122 119 118 115
51 32 47 30 19 280 294 336 131 155 177 355 115 233 267 268 266 284 304 178 155 210 230 229 232 238 239 239 239 242 232 220 217 213 206 200 201 206 205 205 203 196 197 199 205 208 216 226 213 202 201 198 194 194 189 183 191 204 204 191 180 182 183 180 177 172 168 164 161 155 151 149 150 154 150 143 144 146 146 147 144 141 142 146 148 149 149 146 143 139 137 134 128 124 121 118 115
40 66 318 360 148 271 305 303 160 160 338 30 126 227 275 272 269 297 311 181 178 228 241 237 236 237 236 239 233 241 247 233 228 220 210 202 199 206 208 201 195 197 199 199 205 211 209 207 211 203 195 196 194 194 186 180 190 195 191 181 170 172 175 167 160 158 156 154 155 152 147 144 145 145 140 137 138 142 151 149 145 144 144 147 149 150 151 148 144 140 139 137 131 126 122 118 115
357 66 218 270 144 287 315 329 249 300 70 12 195 225 280 270 258 306 334 173 184 239 255 248 238 239 234 235 232 233 246 241 234 224 213 202 198 205 205 193 192 200 199 199 207 215 205 199 206 199 191 193 194 191 182 179 184 177 172 168 161 159 160 154 148 147 147 146 147 144 140 142 147 144 140 143 143 146 153 149 144 145 147 152 154 153 152 150 147 141 137 136 133 128 125 120 116
320 29 141 236 207 241 296 306 316 23 81 226 228 226 256 262 260 282 246 174 183 232 250 249 240 242 237 232 233 229 229 234 230 220 209 199 196 200 195 185 191 202 200 199 207 217 205 196 197 192 189 191 187 183 174 169 168 164 164 165 159 154 152 149 145 145 145 144 144 142 140 146 151 147 144 149 151 150 153 152 149 152 155 158 157 154 150 149 148 143 137 134 133 131 128 123 119
187 170 143 245 248 230 259 274 274 41 62 231 227 244 257 267 275 277 242 176 194 231 245 252 246 242 241 234 232 228 225 233 227 215 205 197 194 194 190 187 195 201 200 201 205 211 204 195 192 188 190 189 184 183 177 169 163 161 162 160 155 150 149 149 149 149 147 146 147 146 144 147 151 149 148 152 155 157 157 155 153 154 158 159 156 151 148 148 147 144 139 135 134 132 129 126 123
152 169 144 157 216 248 242 251 269 233 163 246 231 239 255 263 274 277 262 183 207 246 255 259 251 241 242 237 235 228 226 234 225 211 203 196 194 193 190 190 197 200 199 201 202 203 200 194 189 183 184 185 179 175 170 164 159 158 158 156 153 151 154 156 155 155 152 151 152 152 151 151 153 151 151 155 157 157 153 150 150 152 156 158 154 150 148 149 148 144 141 139 136 131 129 128 127
117 122 112 152 199 265 255 251 297 273 178 257 238 240 262 263 267 270 266 190 225 253 256 254 247 240 240 235 235 228 227 234 211 205 202 195 195 193 190 193 196 197 197 200 200 199 198 195 191 185 182 183 178 171 166 164 163 162 160 159 159 156 159 160 157 157 157 156 155 155 154 151 154 153 151 154 153 150 147 147 150 151 155 157 153 149 148 149 149 146 142 140 139 134 132 131 131
93 120 121 178 212 253 258 229 311 313 175 269 280 269 264 259 264 269 263 228 236 240 239 247 245 240 241 235 236 229 221 216 187 198 199 193 192 190 191 195 194 191 191 196 198 196 196 195 194 189 182 182 182 179 176 175 176 176 170 163 160 155 155 158 157 157 159 157 155 155 153 151 155 153 150 151 149 148 148 150 151 152 155 154 150 148 149 149 149 148 146 142 142 140 137 139 138
83 108 126 231 242 270 286 319 338 1 177 268 312 295 266 254 256 261 254 241 244 237 230 242 245 244 244 233 232 224 209 200 187 195 195 193 191 188 191 192 191 190 190 194 195 194 194 193 192 186 179 179 182 183 181 179 176 176 170 162 158 153 153 156 155 156 156 155 154 153 152 152 155 152 150 152 152 152 152 150 151 151 153 152 149 149 150 151 150 152 153 149 147 144 142 148 151
101 123 135 237 262 287 289 305 330 11 159 274 308 291 269 252 247 254 254 250 260 256 241 244 241 241 247 239 221 212 209 205 196 193 192 193 191 189 191 189 188 190 190 191 191 191 192 191 189 182 177 177 180 182 181 177 171 168 163 158 157 154 153 154 152 152 153 154 154 153 153 155 156 154 155 156 155 155 152 149 150 150 152 151 150 150 151 153 154 157 159 157 154 150 147 157 169
258 173 164 204 221 213 233 285 319 339 10 4 332 298 282 261 250 260 275 293 278 266 253 253 245 240 250 256 231 212 210 204 194 193 187 190 192 190 190 187 188 190 189 189 190 193 192 190 188 182 180 180 181 182 180 176 171 166 159 150 147 146 147 150 149 149 152 154 154 154 154 158 158 157 158 158 156 154 152 150 151 150 150 152 151 151 153 155 158 161 163 163 162 160 156 156 162
292 233 201 203 187 199 235 331 3 6 336 346 15 324 290 284 260 260 285 320 281 271 255 255 252 246 245 247 242 221 213 208 195 194 188 188 190 187 188 187 189 193 191 189 192 196 194 190 189 186 185 185 184 183 181 180 177 171 163 153 149 146 146 151 153 153 156 156 155 155 156 159 160 159 159 158 156 154 153 150 150 150 149 152 153 154 155 157 161 164 166 169 170 170 164 149 132
301 250 207 194 152 151 201 278 18 339 266 281 62 33 284 287 246 241 275 303 285 292 276 261 257 254 245 236 239 221 210 210 196 194 185 184 186 184 187 190 191 194 191 189 191 194 194 192 191 191 191 189 187 185 182 182 178 172 166 161 161 158 154 157 158 158 160 159 157 157 159 161 161 160 159 158 156 155 153 150 150 150 150 152 154 154 154 156 159 161 165 170 166 163 163 147 132
241 237 152 148 150 171 178 148 166 229 272 310 67 114 268 285 257 247 300 303 289 291 274 268 269 251 248 238 234 222 210 202 185 187 179 182 188 186 188 190 192 193 189 189 188 188 192 192 192 192 192 191 190 187 183 181 177 172 167 164 163 161 160 161 161 162 162 161 161 160 161 162 161 160 159 158 156 155 153 152 152 152 152 153 154 154 153 154 156 156 158 161 157 155 161 152 140
243 196 126 133 144 154 135 114 127 344 338 317 277 135 206 275 270 301 342 289 268 270 260 269 299 269 254 248 241 230 211 197 182 184 182 186 191 190 189 188 190 191 188 189 187 187 192 192 191 192 191 192 190 186 183 181 178 173 170 168 165 164 164 163 163 165 164 163 163 162 162 162 160 159 159 157 156 156 156 156 155 156 155 155 156 155 154 155 156 156 157 157 154 152 155 154 144
191 139 102 85 83 81 85 96 105 54 328 255 201 170 196 271 262 224 32 218 241 254 259 274 292 274 262 259 255 235 197 189 185 187 188 191 193 192 189 186 188 189 190 191 188 187 191 192 191 190 192 192 190 187 185 182 180 176 175 175 172 168 165 163 163 164 164 164 164 163 162 162 160 159 159 159 158 158 158 158 158 158 157 156 156 155 154 154 155 155 155 155 156 152 149 149 143
139 117 79 62 41 39 56 43 76 70 288 256 208 193 184 277 269 197 197 215 217 237 269 290 297 291 276 260 250 214 185 183 185 189 191 192 193 190 186 185 187 187 189 190 188 188 190 192 192 191 192 194 192 191 187 183 182 181 181 182 180 173 168 166 164 163 164 165 165 164 163 162 161 161 161 161 161 161 160 160 160 159 157 156 155 153 153 153 153 153 152 152 153 150 147 145 140
109 95 89 81 360 11 30 354 44 124 253 260 253 248 171 242 255 238 248 258 231 218 246 269 280 287 278 278 261 207 192 188 186 186 186 185 186 186 184 184 186 186 187 189 189 189 190 191 192 191 192 194 193 192 189 186 185 186 186 186 184 178 174 172 170 167 168 168 167 165 165 164 163 163 164 163 162 162 162 161 160 158 156 156 154 153 153 153 152 151 150 150 147 144 143 140 134
75 100 109 102 337 348 339 309 75 219 249 256 274 281 230 244 254 259 264 265 245 220 226 241 248 252 258 274 257 216 193 191 191 187 185 182 184 185 184 184 186 188 189 190 189 189 190 191 192 192 194 195 194 191 190 190 190 190 189 187 183 180 178 178 175 173 172 171 171 169 168 167 166 165 165 165 163 163 164 163 161 159 157 156 155 154 154 153 152 151 149 148 144 141 140 137 131
153 147 137 136 139 161 259 270 270 264 263 271 287 215 245 271 269 242 242 249 246 230 228 231 236 242 251 257 231 215 206 200 197 191 188 189 189 187 184 184 187 190 191 190 190 190 190 191 193 195 196 196 195 194 193 193 193 193 191 187 183 181 182 182 179 176 175 175 174 172 171 170 168 167 167 166 164 164 165 164 163 161 158 158 158 157 156 154 154 153 152 150 145 142 142 139 133
183 161 136 156 164 168 211 219 218 256 282 294 289 215 203 226 264 240 235 256 269 257 247 244 249 246 243 256 232 212 216 208 202 199 196 196 192 189 188 188 189 191 191 190 190 191 191 192 194 196 197 196 197 196 196 196 195 194 192 188 185 184 186 185 181 179 178 178 177 175 173 172 170 169 168 166 166 167 167 166 165 164 161 161 162 161 160 158 158 158 155 153 148 145 145 141 135
210 126 115 190 192 153 159 197 179 182 324 302 246 228 217 216 270 267 250 271 279 272 278 271 260 249 223 245 238 212 218 210 203 205 199 196 194 194 193 191 191 191 191 192 192 192 192 193 194 196 198 199 198 198 197 197 196 195 193 190 187 187 187 185 182 180 179 180 180 177 175 174 172 171 169 169 169 169 169 168 167 165 165 167 167 166 164 161 162 161 158 156 151 148 148 143 137
161 137 181 217 173 119 116 230 68 73 269 272 222 253 286 312 281 265 240 251 262 274 284 263 257 252 218 241 236 211 219 213 205 205 199 195 195 198 198 193 191 191 192 194 194 195 195 194 194 194 197 198 198 198 198 197 196 195 195 192 190 190 190 188 185 182 180 180 180 180 177 175 175 173 173 173 172 171 172 171 170 168 170 172 171 170 167 164 164 163 161 159 154 152 152 145 140
124 180 210 185 110 93 108 200 355 40 246 274 287 259 286 294 274 296 111 234 250 259 260 255 265 260 232 246 237 214 217 211 209 204 198 199 197 198 199 195 194 194 194 196 197 197 197 197 196 195 195 197 198 199 198 198 198 196 196 195 193 193 193 191 188 185 183 181 181 181 179 178 177 177 176 176 174 174 174 174 173 174 175 176 175 172 169 166 166 165 162 161 158 157 156 149 145
128 190 188 124 145 182 116 154 204 189 241 281 296 281 266 223 228 270 161 216 232 242 242 246 255 244 239 248 233 217 219 207 208 205 197 201 199 199 198 197 197 196 196 198 198 198 198 199 200 199 200 202 202 201 199 199 200 199 198 197 195 195 195 193 190 187 185 184 183 182 182 181 180 180 180 179 177 177 177 176 178 180 179 179 177 175 172 170 170 168 165 165 162 162 163 158 155
54 79 136 102 138 170 163 151 167 179 212 270 308 311 264 223 194 187 207 214 214 224 230 235 242 234 236 248 230 208 215 213 209 204 201 197 196 200 200 198 198 196 196 197 196 198 199 200 201 201 202 203 201 200 200 199 201 201 201 199 197 197 196 194 192 189 187 186 185 185 185 184 183 183 183 181 180 180 180 180 182 184 183 182 180 178 175 175 175 174 171 170 167 166 169 167 164
149 164 171 186 131 120 175 128 119 140 156 207 279 286 266 243 173 184 206 210 207 212 215 219 234 232 223 232 233 211 211 217 212 202 197 193 193 198 201 201 201 198 196 196 196 197 199 200 201 201 201 200 199 200 200 201 201 202 203 201 199 197 196 195 193 191 189 188 187 187 187 187 186 185 185 184 183 183 183 184 186 187 186 185 183 181 180 179 180 179 175 175 173 170 173 175 174
174 192 191 184 160 125 142 229 231 138 155 189 178 266 272 254 173 193 203 206 207 207 213 217 233 247 237 219 210 209 213 215 209 199 192 189 190 192 197 200 201 199 196 195 195 196 198 200 201 201 201 200 200 201 202 203 202 203 204 203 201 198 198 197 194 192 191 190 189 189 190 189 188 187 187 187 186 185 186 188 188 189 190 188 186 185 183 183 185 183 179 178 178 176 178 183 185